DateTimeUTC,F1_A11,F1_S11,BsB_S11,BsG_S11,BsR_S11,BbsB_S11,BbsG_S11,BbsR_S11,BaB_A11,BaG_A11,BaR_A11,Tu_S11,T_S11,Uu_S11,U_S11,P_S11,T1_A11
2021-12-16T14:00:00Z,00000200,21000000,,,,,,,-000.12,-000.44,0000.15,20.0,27.1,,00.0,0644.1,31.1
2021-12-16T14:01:00Z,00000200,21000000,,,,,,,-000.06,0000.09,-000.40,20.0,27.1,,00.0,0644.1,31.1
2021-12-16T14:02:00Z,00000200,21000000,,,,,,,-000.06,0000.16,0000.28,19.9,27.1,,00.0,0644.1,31.1
2021-12-16T14:03:00Z,00000200,61000000,,,,,,,0000.10,0000.05,0000.02,19.9,27.1,,00.0,0644.1,31.1
2021-12-16T14:04:00Z,00000200,41000000,-000.23,0000.40,0000.13,-000.03,0000.20,0000.01,-000.07,-000.26,-000.41,20.1,26.9,,00.0,0644.9,31.1
2021-12-16T14:05:00Z,00000200,01000000,-000.25,-000.02,0000.01,-000.33,0000.01,-000.23,0000.00,0000.16,0000.39,20.2,26.9,,00.0,0644.9,31.1
2021-12-16T14:06:00Z,00000200,01000000,-000.21,0000.03,-000.07,-000.62,0000.04,0000.31,0000.49,0000.16,0000.07,20.2,26.9,,00.0,0644.9,31.1
2021-12-16T14:07:00Z,00000200,01000000,0000.79,0000.23,0000.22,-000.46,0000.08,0000.01,-000.46,-000.06,-000.00,20.3,26.9,,00.0,0644.9,31.1
2021-12-16T14:08:00Z,00000200,01000000,0000.38,0000.14,0000.19,0000.44,0000.38,0000.04,0000.41,0000.22,0000.50,20.3,26.9,,00.0,0644.9,31.1
2021-12-16T14:09:00Z,00000200,01000000,-000.01,0000.13,0000.05,0000.04,0000.26,-000.29,-000.11,-000.04,0000.03,20.3,26.9,,00.0,0644.9,31.1
2021-12-16T14:10:00Z,00000200,01000000,-000.07,0000.16,0000.07,-000.37,0000.03,-000.18,0000.30,0000.38,-000.01,20.3,26.9,,00.0,0644.9,31.1
2021-12-16T14:11:00Z,00000200,01000000,-000.23,0000.25,-000.21,-000.29,-000.21,-000.02,0000.31,0000.15,-000.46,20.4,26.9,,00.0,0644.8,31.2
2021-12-16T14:12:00Z,00000200,01000000,-000.40,0000.40,0000.10,-000.62,-000.15,-000.01,-000.05,0000.15,0000.32,20.4,27.0,,00.0,0644.8,31.2
2021-12-16T14:13:00Z,00000200,01000000,0000.15,0000.36,-000.07,-000.39,0000.13,-000.16,-000.10,0000.11,0000.19,20.3,26.9,,00.0,0644.7,31.1
2021-12-16T14:14:00Z,00000200,01000000,0000.49,0000.36,-000.21,-000.22,0000.12,-000.26,0000.19,0000.05,0000.14,20.2,26.9,,00.0,0644.7,31.1
2021-12-16T14:15:00Z,00000200,01000000,0000.01,-000.21,0000.16,-000.25,0000.14,-000.01,0000.02,-000.20,-000.29,20.2,26.8,,00.0,0644.7,31.1
2021-12-16T14:16:00Z,00000200,01000000,-000.13,-000.08,-000.01,0000.42,-000.16,-000.14,0000.19,0000.18,0000.53,20.1,26.8,,00.0,0644.7,31.1
2021-12-16T14:17:00Z,00000200,01000000,-000.20,0000.11,-000.19,-000.87,0000.09,-000.48,-000.02,-000.26,-000.27,20.1,26.8,,00.0,0644.7,31.1
2021-12-16T14:18:00Z,00000200,01000000,0000.35,0000.11,0000.13,-000.94,-000.17,0000.20,0000.46,0000.67,0000.24,20.1,26.7,,00.0,0644.7,31.1
2021-12-16T14:19:00Z,00000200,01000000,0000.54,-000.00,0000.30,-001.09,-000.25,-000.21,-000.04,0000.10,-000.04,20.1,26.7,,00.0,0644.7,31.1
2021-12-16T14:20:00Z,00000200,01000000,-000.26,0000.15,0000.19,0000.35,0000.09,-000.46,0000.13,-000.00,0000.04,20.2,26.8,,00.0,0644.6,31.1
2021-12-16T14:21:00Z,00000200,01000000,-000.57,0000.02,-000.12,-000.67,0000.05,0000.08,0000.02,0000.25,0000.28,20.2,26.8,,00.0,0644.6,31.1
2021-12-16T14:22:00Z,00000200,01000000,0000.30,0000.18,-000.07,-000.32,0000.08,-000.11,0000.61,0000.09,0000.42,20.2,26.8,,00.0,0644.6,31.1
2021-12-16T14:23:00Z,00000200,01000000,0000.49,0000.14,-000.15,0000.10,0000.44,-000.41,-000.03,0000.25,-000.11,20.3,26.8,,00.0,0644.6,31.1
2021-12-16T14:24:00Z,00000200,01000000,-001.19,0000.37,-000.15,-000.57,0000.16,-000.21,0000.16,0000.23,-000.12,20.3,26.8,,00.0,0644.6,31.1
2021-12-16T14:25:00Z,00000200,01000000,0000.05,0000.35,0000.19,-000.97,0000.12,-000.15,0000.20,-000.06,0000.51,20.3,26.8,,00.0,0644.6,31.1
2021-12-16T14:26:00Z,00000200,01000000,0000.08,0000.15,0000.21,-000.96,-000.01,-000.25,0000.03,0000.12,-000.26,20.3,26.8,,00.0,0644.6,31.2
2021-12-16T14:27:00Z,00000200,01000000,0000.65,-000.28,-000.21,-000.64,0000.03,-000.11,0000.01,0000.42,0000.42,20.4,26.8,,00.0,0644.6,31.2
2021-12-16T14:28:00Z,00000200,01000000,-000.45,0000.25,0000.15,-000.18,-000.06,-000.42,0000.36,0000.18,-000.19,20.4,26.9,,00.0,0644.6,31.1
2021-12-16T14:29:00Z,00000200,01000000,0000.01,-000.24,-000.14,-000.17,-000.26,-000.13,0000.23,-000.14,-000.13,20.4,26.9,,00.0,0644.6,31.1
2021-12-16T14:30:00Z,00000200,01000000,0000.28,-000.10,0000.32,-000.87,0000.11,0000.29,0000.00,0000.25,0000.32,20.4,26.9,,00.0,0644.6,31.1
2021-12-16T14:31:00Z,00000200,01000000,-000.66,0000.15,0000.06,0000.15,0000.05,0000.15,0000.28,-000.11,0000.13,20.3,26.8,,00.0,0644.6,31.2
2021-12-16T14:32:00Z,00000200,01000000,-000.30,0000.25,0000.21,-000.59,0000.17,0000.25,0000.06,0000.44,0000.19,20.3,26.8,,00.0,0644.5,31.1
2021-12-16T14:33:00Z,00000200,01000000,-000.04,0000.11,-000.02,-000.10,0000.01,0000.13,0000.40,0000.11,0000.27,20.3,26.8,,00.0,0644.5,31.1
2021-12-16T14:34:00Z,00000200,01000000,0000.07,0000.32,-000.02,0000.02,0000.02,0000.26,-000.07,0000.56,0000.36,20.4,26.8,,00.0,0644.5,31.1
2021-12-16T14:35:00Z,00000200,01000000,0000.27,0000.08,0000.01,-000.12,0000.23,-000.17,0000.33,-000.40,-000.05,20.4,26.9,,00.0,0644.5,31.2
2021-12-16T14:36:00Z,00000200,01000000,-000.43,0000.25,-000.04,-001.05,0000.22,-000.24,0000.02,-000.09,0000.12,20.4,26.9,,00.0,0644.5,31.2
2021-12-16T14:37:00Z,00000200,01000000,-000.38,0000.10,0000.04,-000.17,-000.02,-000.06,-000.01,0000.32,-000.20,20.4,26.9,,00.0,0644.5,31.1
2021-12-16T14:38:00Z,00000200,01000000,-000.66,-000.02,0000.17,-000.65,0000.16,-000.15,0000.35,0000.52,0000.07,20.5,26.9,,00.0,0644.5,31.2
2021-12-16T14:39:00Z,00000200,01000000,-000.40,0000.30,-000.08,-000.87,0000.19,-000.20,0000.24,0000.06,0000.26,20.5,26.9,,00.0,0644.5,31.2
2021-12-16T14:40:00Z,00000200,01000000,-000.54,0000.05,-000.20,-000.30,-000.04,0000.01,0000.07,0000.03,0000.39,20.6,26.9,,00.0,0644.5,31.2
2021-12-16T14:41:00Z,00000200,01000000,-000.25,0000.13,0000.25,-000.36,-000.06,-000.22,-000.02,0000.11,-000.25,20.6,27.0,,00.0,0644.5,31.2
2021-12-16T14:42:00Z,00000200,01000000,0000.46,0000.12,-000.36,-000.94,0000.07,0000.07,0000.49,0000.22,0000.37,20.6,27.0,,00.0,0644.4,31.2
2021-12-16T14:43:00Z,00000200,01000000,-000.09,0000.12,0000.16,-000.68,0000.14,-000.44,-000.19,0000.31,-000.24,20.6,27.0,,00.0,0644.4,31.2
2021-12-16T14:44:00Z,00000200,01000000,0000.17,0000.05,-000.07,0000.01,0000.14,-000.01,0000.29,-000.18,0000.15,20.6,27.0,,00.0,0644.3,31.2
2021-12-16T14:45:00Z,00000200,01000000,-000.36,0000.34,-000.40,0000.09,0000.04,-000.33,0000.03,0000.17,0000.16,20.5,27.0,,00.0,0644.4,31.2
2021-12-16T14:46:00Z,00000200,01000000,0000.09,0000.17,0000.09,-000.51,-000.21,0000.26,0000.37,0000.19,0000.14,20.5,26.9,,00.0,0644.3,31.1
2021-12-16T14:47:00Z,00000200,01000000,0000.42,0000.28,-000.20,0000.03,-000.09,-000.20,0000.38,0000.06,0000.09,20.5,26.9,,00.0,0644.3,31.2
2021-12-16T14:48:00Z,00000200,01000000,0000.99,0000.19,0000.10,-000.47,-000.17,0000.07,0000.15,0000.50,0000.09,20.5,26.9,,00.0,0644.3,31.2
2021-12-16T14:49:00Z,00000200,01000000,-000.78,0000.12,-000.00,0000.12,0000.13,-000.69,0000.09,0000.20,0000.37,20.5,26.9,,00.0,0644.3,31.1
2021-12-16T14:50:00Z,00000200,01000000,-000.19,0000.07,0000.09,-000.40,0000.31,-000.17,0000.54,0000.18,0000.25,20.5,27.0,,00.0,0644.3,31.1
2021-12-16T14:51:00Z,00000200,01000000,-000.54,0000.19,-000.33,-000.27,-000.07,-000.49,-000.11,0000.22,0000.28,20.6,27.0,,00.0,0644.3,31.1
2021-12-16T14:52:00Z,00000200,01000000,0000.47,0000.37,0000.13,-000.49,-000.18,-000.13,0000.24,0000.36,-000.06,20.6,27.0,,00.0,0644.3,31.1
2021-12-16T14:53:00Z,00000200,01000000,0000.92,-000.09,0000.07,0000.06,0000.15,-000.33,0000.03,0000.11,0000.12,20.6,27.0,,00.0,0644.3,31.2
2021-12-16T14:54:00Z,00000200,01000000,-000.34,0000.24,-000.02,-000.04,0000.13,0000.12,0000.22,0000.05,0000.21,20.6,27.0,,00.0,0644.3,31.2
2021-12-16T14:55:00Z,00000200,01000000,0000.45,0000.12,0000.21,-000.21,0000.03,-000.14,0000.56,0000.46,0000.28,20.5,27.0,,00.0,0644.2,31.2
2021-12-16T14:56:00Z,00000200,01000000,0000.19,0000.31,-000.21,-000.20,-000.08,-000.36,0000.17,-000.22,-000.02,20.4,26.9,,00.0,0644.2,31.1
2021-12-16T14:57:00Z,00000200,41000000,,,,,,,-001.31,-001.02,-000.98,20.4,27.0,,00.0,0644.3,31.1
2021-12-16T14:58:00Z,00000200,61000000,,,,,,,0000.66,0000.54,0000.49,20.0,27.0,,00.0,0643.2,31.1
2021-12-16T14:59:00Z,00000200,21000000,,,,,,,0000.35,0000.41,0000.04,19.9,27.1,,00.0,0643.2,31.0
